Regional Weather Roundup
Issued by NWS Lake Charles, LA

Home | Current Version | Previous Version | Text Only | Print | Product List | Glossary On
Versions: 1 2 3 4 5 6 7 8 9 10 11 12 13 14 15 16 17 18 19 20 21 22 23 24 25 26 27 28 29 30 31 32 33 34 35 36 37 38 39 40 41 42 43 44 45 46 47 48 49 50
000
ASUS44 KLCH 290510
RWRLCH
RWRLCH
REGIONAL WEATHER ROUNDUP
NATIONAL WEATHER SERVICE LAKE CHARLES LA
1200 AM CDT FRI AUG 29 2014

Note: "fair" indicates few or no clouds below 12,000 feet with no
significant weather and/or obstructions to visibility.


ACROSS SOUTHEAST TEXAS

CITY           SKY/WX    TMP DP  RH WIND       PRES   REMARKS
BEAUMONT       MOCLDY    82  76  81 E9        29.91S
BEAUMONT CITY    N/A     79  76  90 E6        29.92S
ORANGE         PTCLDY    81  77  87 E7        29.93F
JASPER         CLEAR     73  71  92 CALM      29.96S
$$

ACROSS CENTRAL LOUISIANA

CITY           SKY/WX    TMP DP  RH WIND       PRES   REMARKS
LEESVILLE      CLEAR     75  73  93 CALM      29.95S
FULLERTON        N/A     76  71  85 MISG      29.94R
ALEXANDRIA INT CLEAR     75  73  93 SE5       29.94S
ESLER FIELD    CLEAR     76  73  91 CALM      29.96S
DERIDDER         N/A     76  74  91 CALM      29.96F
OAKDALE        CLEAR     74  73  96 CALM      29.96S FOG
OPELOUSAS      CLOUDY    77  73  86 CALM      29.96S
$$

ACROSS SOUTHWEST AND SOUTH CENTRAL LOUISIANA

CITY           SKY/WX    TMP DP  RH WIND       PRES   REMARKS
SULPHUR        CLEAR     80  77  91 E6        29.93F
LAKE CHARLES   CLEAR     78  75  90 SE5       29.93S
CHENNAULT INT  CLEAR     77  74  89 E5        29.94S
CAMERON PHI      N/A     84  75  74 SE13      29.92F
DEQUINCY         N/A     75  74  96 CALM      29.94S
JENNINGS         N/A     78  74  90 SE3       29.95R
LAFAYETTE      MOCLDY    79  75  87 CALM      29.96S
NEW IBERIA     MOCLDY    79  75  87 SE5       29.96S
ABBEVILLE        N/A     77  76  95 CALM      29.95S
PATTERSON        N/A     75  73  94 E3        29.99S
SALT POINT       N/A     81  76  84 CALM      29.94F
$$

SELECTED SITES ACROSS THE REGION

CITY           SKY/WX    TMP DP  RH WIND       PRES   REMARKS
HOUSTON BUSH   PTCLDY    79  75  89 E5        29.91S
HOUSTON HOBBY  CLEAR     80  74  81 CALM      29.89S
GALVESTON      PTCLDY    84  77  79 SE14      29.91R
COLLEGE STAT   CLEAR     78  71  79 SE7       29.92S
CONROE         CLEAR     75  73  93 CALM      29.93R
HUNTSVILLE     CLEAR     79  74  84 CALM      29.93S
LUFKIN         CLEAR     79  74  84 CALM      29.94R
SHREVEPORT     MOCLDY    81  70  69 S5        29.94S
MONROE         PTCLDY    76  71  85 CALM      29.96F
NATCHEZ MS     MOCLDY    77  73  88 CALM      29.98S
BATON ROUGE    MOCLDY    79  72  79 SE5       29.97S
N.O. INTL ARPT PTCLDY    81  73  76 S3        29.96F
SLIDELL        PTCLDY    75  72  90 CALM      29.97S
$$

MARINE REPORTS

STATION/POSITION TIME  TEMP    WIND        PRES    VSBY  WAVE
                       AIR SEA DIR/SP/G                  HT/PER
                 (UTC) (F)     (DEG/KT/KT) (MB)    (MI)  (FT/S)
BUOY 30 S HIGH I 0500   85 86  120/ 14/ 16 1012.1R         4/ 5
SEA RIM ST PARK  0500   84     120/ 12/ 15 1013.3S
PORT ARTHUR      0500      87  120/  6/ 10 1013.0S
SABINE PASS N    0500   84 85  130/ 10/ 13 1012.9S
TEXAS POINT      0500   85 84  120/ 17/ 20 1012.9F
CALCASIEU PASS   0500   84 84  140/ 15/ 18 1014.2S
LK CHARLES BEACH 0500   80 88              1014.3F
MARSH ISLAND     NOT AVBL
FRESH WATER LOCK 0500   82 83   90/  7/ 10 1013.8S
AMERADA PASS     0500   81 85   80/  4/  5 1014.1S
$$


USA.gov is the U.S. government's official web portal to all federal, state and local government web resources and services.